Terminal Aerodrome Forecast
Issued by NWS Raleigh/Durham, NC

Current Version | Previous Version | Text Only | Print | Product List | Glossary On
Versions: 1 2 3 4 5 6 7 8 9 10 11 12 13 14 15 16 17 18 19 20 21 22 23 24 25 26 27 28 29 30 31 32 33 34 35 36 37 38 39 40 41 42 43 44 45 46 47 48
000
FTUS42 KRAH 190536
TAFFAY
TAF
KFAY 190536Z 1906/2006 08006KT P6SM BKN180
     FM191400 08009KT P6SM SCT050 BKN120
     FM200200 07009KT P6SM SKC=

USA.gov is the U.S. government's official web portal to all federal, state and local government web resources and services.